DELTA 1 DEB, 28443

Orbit data source: Space-Track

DELTA 1 DEB, 28443 is space debris in LEO originally from a launch on Thu, 08 Feb 1962 UTC launched from the Air Force Eastern Test Range (AFETR). Debris objects in space refer to the collection of defunct objects orbiting the Earth. Examples of debris include non-operational satellites, rocket bodies, and fragments generated from explosions, collisions, or faulty payload assembly.

Loading next visibility...
Identifier
28443, 1962-002E
Orbit
LEO
Country
Flag of USUS
Related business
Manufacturer
LM/EW
Mission
Spacecraft
Bus & Motor
Unknown
Mass
Unknown
Launch date (UTC)
1962-02-08 (64 years ago)
Launch vehicle
Unknown
Launch site
Air Force Eastern Test Range (AFETR)
Object type
Payload
Rocket body
Debris
Shape & HBR
Unknown
Radar Cross Section
Small (<0.1 m²)

Expand to show TLE details & history
Last TLE update: 1 day ago

TLE from 1 day ago
0 DELTA 1 DEB
1 28443U 62002E   25259.38530294  .00000372  00000-0  11658-3 0  9994
2 28443  48.2681 259.1810 0071779 182.1203 317.9474 14.58306760267376
Epoch: 2025-09-16T09:14Z
TLE epoch observation values (Epoch: 2025-09-16T09:14:50.174Z)
Latitude
29.07799°
Longitude
-84.66414°
Altitude
662.125 km
Speed
7.55 km/s
True Right ascension
03h 18m 29s
True Declination
28° 55' 49"
Sunlit
Object was in full shadow at epoch
Visualization orbit readout
Latitude
Unknown
Longitude
Unknown
Altitude
Unknown
Speed
Unknown
Apparent Right ascension
Unknown
Apparent Declination
Unknown
Sunlit
N/A
Visualization observer readout
Local Sidereal Time
03:20:39
Azimuth
Unknown
Elevation
Unknown
Doppler factor
Unknown
Orbital elements
Apogee altitude
750.479 km
Perigee altitude
648.872 km
Semi-major axis
7,077.813 km
Eccentricity
0.00718
Inclination
48.2681°
RAAN
259.181°
Arg. of periapsis
182.1203°
True anomaly
317.39278°
Mean anomaly
317.9474°
Eccentric anomaly
317.67046°
Mean motion
3.64498 °/min
Orbital period
98.77 mins
BSTAR
0.00011658
Loading maneuver chart data...
Computing Atmospheric mass density...
Loading historical data...
Loading historical data...
Loading historical data...
Loading historical data...
Loading historical data...
Loading historical data...
Loading historical data...
Other satellites on launch #2 in the year 1962 (1962-02-08 UTC)

Documentation

Showing up to 5 results
|